This is the latest recevied weather packets stored in our database for station/object DM8MH-13. If no packets are shown the sender has not sent any weather packets the latest 10 day(s).
| Time | Temp. | Humidity | Pressure | Rain* | Wind** | Luminosity | Snow |
|---|---|---|---|---|---|---|---|
| 1788509470 | 21.67° C | 79% | 1012 hPa | 0 mm | - | 101 W/m² | - |
| 1788508870 | 21.67° C | 79% | 1012.1 hPa | 0 mm | - | 79 W/m² | - |
| 1788508270 | 21.67° C | 79% | 1012.1 hPa | 0 mm | - | 76 W/m² | - |
| 1788507670 | 21.67° C | 79% | 1012.1 hPa | 0 mm | - | 72 W/m² | - |
| 1788507070 | 21.67° C | 79% | 1012.2 hPa | 0 mm | - | 196 W/m² | - |
| 1788506471 | 21.11° C | 80% | 1012.2 hPa | 0 mm | - | 185 W/m² | - |
| 1788505870 | 21.11° C | 82% | 1012.3 hPa | 0 mm | - | 182 W/m² | - |
| 1788505272 | 20.56° C | 84% | 1012.3 hPa | 0 mm | - | 171 W/m² | - |
| 1788504670 | 20.56° C | 85% | 1012.4 hPa | 0 mm | - | 126 W/m² | - |
| 1788504070 | 20° C | 86% | 1012.7 hPa | 0 mm | - | 162 W/m² | - |
| 1788503470 | 19.44° C | 88% | 1012.7 hPa | 0 mm | - | 141 W/m² | - |
| 1788502871 | 19.44° C | 89% | 1012.7 hPa | 0 mm | - | 86 W/m² | - |
| 1788502270 | 18.89° C | 90% | 1013 hPa | 0 mm | - | 44 W/m² | - |
| 1788501671 | 18.89° C | 90% | 1013 hPa | 0 mm | - | 41 W/m² | - |
| 1788501071 | 18.89° C | 90% | 1013 hPa | 0 mm | - | 86 W/m² | - |
| 1788500471 | 18.89° C | 90% | 1013.3 hPa | 0 mm | - | 53 W/m² | - |
| 1788499871 | 18.89° C | 90% | 1013.4 hPa | 0 mm | - | 32 W/m² | - |
| 1788499271 | 18.89° C | 91% | 1013.4 hPa | 0.25 mm | - | 16 W/m² | - |
| 1788498671 | 18.33° C | 90% | 1013.6 hPa | 0.25 mm | - | 8 W/m² | - |
| 1788498070 | 18.33° C | 90% | 1013.7 hPa | 0.25 mm | - | 5 W/m² | - |
| 1788497471 | 18.33° C | 90% | 1013.8 hPa | 0.25 mm | - | 0 W/m² | - |
| 1788496871 | 18.33° C | 89% | 1013.8 hPa | 0.25 mm | - | 0 W/m² | - |
| 1788496270 | 18.89° C | 88% | 1013.9 hPa | 0.25 mm | - | 0 W/m² | - |
| 1788495670 | 18.89° C | 88% | 1014 hPa | 0 mm | - | 0 W/m² | - |
| 1788495071 | 18.89° C | 88% | 1014.1 hPa | 0 mm | - | 0 W/m² | - |
* Rain latest hour (hover to see other rain measurements)
** Current wind speed in m/s (hover to see current wind gust speed)